When you browse on this site, cookies collect data to enhance your experience and personalize the content and advertising you see.
Visit our Privacy Policy to learn more. By continuing to use the site, you agree to this use of cookies and data.
  • In Austria
  • List of Countries
  • For 7 days
  • Water Temperature
  • Weather Map
  • News
  • Weather Widgets
  • user-avatar
    Login

    Hourly Weather Belmopan

    Today, 27 February, Thursday

    Time Temperature Precipitation Wind Pressure Humidity
    00:00 +24°C° 0 mm 2 mps 755 mmHg 98%
    01:00 +24°C° 0.4 mm 2 mps 755 mmHg 98%
    02:00 +23°C° 0.4 mm 2 mps 755 mmHg 98%
    03:00 +23°C° 0.4 mm 2 mps 755 mmHg 98%
    04:00 +23°C° 0.1 mm 2 mps 755 mmHg 98%
    05:00 +21°C° 0.1 mm 2 mps 756 mmHg 98%
    06:00 +21°C° 0 mm 2 mps 756 mmHg 97%
    07:00 +21°C° 0.1 mm 2 mps 757 mmHg 96%
    08:00 +20°C° 0.1 mm 2 mps 758 mmHg 94%
    09:00 +20°C° 0.1 mm 2 mps 759 mmHg 93%
    10:00 +21°C° 0 mm 2 mps 759 mmHg 86%
    11:00 +23°C° 0 mm 2 mps 759 mmHg 78%
    12:00 +24°C° 0 mm 2 mps 759 mmHg 70%
    13:00 +25°C° 0 mm 1 mps 759 mmHg 67%
    14:00 +26°C° 0 mm 1 mps 759 mmHg 63%
    15:00 +27°C° 0 mm 1 mps 758 mmHg 59%
    16:00 +25°C° 0.1 mm 1 mps 758 mmHg 67%
    17:00 +24°C° 0.1 mm 1 mps 758 mmHg 75%
    18:00 +23°C° 0.1 mm 1 mps 758 mmHg 83%
    19:00 +23°C° 0 mm 1 mps 759 mmHg 84%
    20:00 +22°C° 0 mm 1 mps 759 mmHg 85%
    21:00 +22°C° 0 mm 1 mps 760 mmHg 86%
    22:00 +22°C° 0.1 mm 1 mps 760 mmHg 87%
    23:00 +22°C° 0.1 mm 1 mps 760 mmHg 88%

    Tomorrow, 28 February, Friday

    Time Temperature Precipitation Wind Pressure Humidity
    00:00 +21°C° 0.1 mm 1 mps 760 mmHg 89%
    01:00 +21°C° 0 mm 1 mps 759 mmHg 89%
    02:00 +21°C° 0 mm 1 mps 759 mmHg 89%
    03:00 +20°C° 0 mm 1 mps 759 mmHg 89%
    04:00 +20°C° 0 mm 1 mps 759 mmHg 90%
    05:00 +19°C° 0 mm 1 mps 759 mmHg 90%
    06:00 +18°C° 0 mm 1 mps 759 mmHg 91%
    07:00 +19°C° 0 mm 1 mps 760 mmHg 86%
    08:00 +20°C° 0 mm 1 mps 760 mmHg 80%
    09:00 +21°C° 0 mm 1 mps 761 mmHg 75%
    10:00 +22°C° 0 mm 1 mps 761 mmHg 72%
    11:00 +22°C° 0 mm 1 mps 761 mmHg 68%
    12:00 +23°C° 0 mm 1 mps 761 mmHg 65%
    13:00 +24°C° 0 mm 1 mps 760 mmHg 63%
    14:00 +24°C° 0 mm 1 mps 760 mmHg 61%
    15:00 +25°C° 0 mm 1 mps 759 mmHg 59%
    16:00 +24°C° 0 mm 1 mps 759 mmHg 62%
    17:00 +24°C° 0 mm 1 mps 759 mmHg 66%
    18:00 +21°C° 0 mm 0 mps 760 mmHg 70%
    19:00 +21°C° 0 mm 0 mps 760 mmHg 70%
    20:00 +20°C° 0 mm 0 mps 760 mmHg 70%
    21:00 +20°C° 0 mm 0 mps 761 mmHg 70%
    22:00 +22°C° 0 mm 1 mps 761 mmHg 71%
    23:00 +22°C° 0 mm 1 mps 761 mmHg 73%

    Day after tomorrow, 29 February, Saturday

    Time Temperature Precipitation Wind Pressure Humidity
    00:00 +22°C° 0 mm 1 mps 761 mmHg 74%
    01:00 +21°C° 0 mm 1 mps 761 mmHg 75%
    02:00 +21°C° 0 mm 1 mps 760 mmHg 76%
    03:00 +18°C° 0 mm 0 mps 760 mmHg 77%
    04:00 +20°C° 0 mm 1 mps 760 mmHg 77%
    05:00 +19°C° 0 mm 1 mps 760 mmHg 77%
    06:00 +19°C° 0 mm 1 mps 760 mmHg 77%
    07:00 +20°C° 0 mm 1 mps 761 mmHg 73%
    08:00 +20°C° 0 mm 1 mps 761 mmHg 69%
    09:00 +21°C° 0 mm 1 mps 762 mmHg 65%
    10:00 +23°C° 0 mm 1 mps 762 mmHg 58%
    11:00 +24°C° 0 mm 1 mps 761 mmHg 52%
    12:00 +26°C° 0 mm 1 mps 761 mmHg 45%
    13:00 +27°C° 0 mm 1 mps 760 mmHg 45%
    14:00 +27°C° 0 mm 1 mps 759 mmHg 45%
    15:00 +28°C° 0 mm 2 mps 759 mmHg 44%
    16:00 +26°C° 0 mm 1 mps 759 mmHg 55%
    17:00 +24°C° 0 mm 1 mps 759 mmHg 66%
    18:00 +22°C° 0 mm 1 mps 759 mmHg 76%
    19:00 +22°C° 0 mm 1 mps 759 mmHg 79%
    20:00 +22°C° 0 mm 1 mps 759 mmHg 82%
    21:00 +19°C° 0 mm 0 mps 760 mmHg 84%
    22:00 +19°C° 0.1 mm 0 mps 759 mmHg 86%
    23:00 +19°C° 0.1 mm 0 mps 759 mmHg 87%

    1 March, Sunday

    Time Temperature Precipitation Wind Pressure Humidity
    00:00 +19°C° 0.1 mm 0 mps 759 mmHg 89%
    01:00 +18°C° 0 mm 0 mps 758 mmHg 92%
    02:00 +18°C° 0 mm 0 mps 758 mmHg 95%
    03:00 +17°C° 0 mm 0 mps 757 mmHg 98%
    04:00 +17°C° 0 mm 0 mps 757 mmHg 97%
    05:00 +17°C° 0 mm 0 mps 758 mmHg 96%
    06:00 +17°C° 0 mm 0 mps 758 mmHg 95%
    07:00 +19°C° 0 mm 0 mps 758 mmHg 90%
    08:00 +22°C° 0 mm 1 mps 758 mmHg 84%
    09:00 +24°C° 0 mm 1 mps 759 mmHg 79%
    10:00 +25°C° 0.2 mm 1 mps 758 mmHg 73%
    11:00 +27°C° 0.2 mm 2 mps 758 mmHg 67%
    12:00 +28°C° 0.2 mm 2 mps 757 mmHg 61%
    13:00 +28°C° 0.2 mm 2 mps 756 mmHg 62%
    14:00 +28°C° 0.2 mm 3 mps 756 mmHg 62%
    15:00 +28°C° 0.2 mm 3 mps 755 mmHg 63%
    16:00 +27°C° 0 mm 2 mps 755 mmHg 68%
    17:00 +25°C° 0 mm 2 mps 755 mmHg 74%
    18:00 +24°C° 0 mm 2 mps 755 mmHg 80%
    19:00 +23°C° 0 mm 1 mps 755 mmHg 86%
    20:00 +22°C° 0 mm 1 mps 755 mmHg 92%
    21:00 +21°C° 0 mm 1 mps 756 mmHg 98%
    22:00 +18°C° 0 mm 0 mps 756 mmHg 98%
    23:00 +18°C° 0 mm 0 mps 755 mmHg 98%

    2 March, Monday

    Time Temperature Precipitation Wind Pressure Humidity
    00:00 +18°C° 0 mm 0 mps 755 mmHg 98%
    01:00 +18°C° 0 mm 0 mps 754 mmHg 98%
    02:00 +19°C° 0 mm 0 mps 754 mmHg 98%
    03:00 +19°C° 0 mm 0 mps 753 mmHg 98%
    04:00 +19°C° 0.1 mm 0 mps 754 mmHg 98%
    05:00 +20°C° 0.1 mm 0 mps 754 mmHg 98%
    06:00 +20°C° 0.1 mm 0 mps 754 mmHg 98%
    07:00 +23°C° 0.2 mm 1 mps 754 mmHg 93%
    08:00 +25°C° 0.2 mm 2 mps 755 mmHg 88%
    09:00 +26°C° 0.2 mm 2 mps 755 mmHg 84%
    10:00 +27°C° 0.2 mm 3 mps 754 mmHg 78%
    11:00 +28°C° 0.2 mm 3 mps 754 mmHg 72%
    12:00 +29°C° 0.2 mm 3 mps 754 mmHg 66%
    13:00 +29°C° 0.1 mm 3 mps 753 mmHg 66%
    14:00 +29°C° 0.1 mm 3 mps 752 mmHg 65%
    15:00 +29°C° 0.1 mm 3 mps 751 mmHg 65%
    16:00 +28°C° 0 mm 3 mps 751 mmHg 71%
    17:00 +26°C° 0 mm 2 mps 751 mmHg 76%
    18:00 +25°C° 0 mm 2 mps 752 mmHg 82%
    19:00 +24°C° 0 mm 2 mps 752 mmHg 86%
    20:00 +23°C° 0 mm 2 mps 752 mmHg 90%
    21:00 +23°C° 0 mm 1 mps 752 mmHg 95%
    22:00 +23°C° 0 mm 1 mps 752 mmHg 94%
    23:00 +23°C° 0 mm 1 mps 752 mmHg 94%

    3 March, Tuesday

    Time Temperature Precipitation Wind Pressure Humidity
    00:00 +23°C° 0 mm 1 mps 752 mmHg 94%
    01:00 +23°C° 0 mm 1 mps 751 mmHg 95%
    02:00 +23°C° 0 mm 1 mps 750 mmHg 96%
    03:00 +23°C° 0 mm 1 mps 750 mmHg 97%
    04:00 +23°C° 0 mm 1 mps 750 mmHg 98%
    05:00 +24°C° 0 mm 1 mps 750 mmHg 98%
    06:00 +24°C° 0 mm 1 mps 750 mmHg 98%
    07:00 +26°C° 0 mm 1 mps 751 mmHg 90%
    08:00 +27°C° 0 mm 2 mps 751 mmHg 83%
    09:00 +29°C° 0 mm 2 mps 752 mmHg 75%
    10:00 +31°C° 0 mm 2 mps 751 mmHg 66%
    11:00 +34°C° 0 mm 2 mps 751 mmHg 58%
    12:00 +36°C° 0 mm 2 mps 750 mmHg 49%
    13:00 +36°C° 0 mm 3 mps 749 mmHg 49%
    14:00 +36°C° 0 mm 3 mps 749 mmHg 48%
    15:00 +36°C° 0 mm 3 mps 748 mmHg 48%
    16:00 +33°C° 0 mm 3 mps 748 mmHg 58%
    17:00 +30°C° 0 mm 3 mps 748 mmHg 68%
    18:00 +28°C° 0 mm 2 mps 748 mmHg 79%
    19:00 +27°C° 0 mm 2 mps 748 mmHg 84%
    20:00 +26°C° 0 mm 2 mps 749 mmHg 89%
    21:00 +25°C° 0 mm 2 mps 749 mmHg 94%
    22:00 +25°C° 0 mm 2 mps 749 mmHg 95%
    23:00 +25°C° 0 mm 1 mps 749 mmHg 96%
    Show more